Location: Banff
(51.1667°N, 115.5667°W)
Time: 07:23:00
(UTC+00:00)

S-56A Canister/Altair - Pass Details

Date: 29 November 2020
Orbit: 633 x 2499 km, 38.9° (Epoch: 21 January)

Event Time Altitude Azimuth Distance (km) Brightness Sun altitude
Rises 03:38:06 0° 232° (SW) 5,491 12.4 -36.4°
Reaches altitude 10° 03:42:37 10° 223° (SW) 4,192 11.5 -37.1°
Enters shadow 03:48:55 27° 193° (SSW) 2,629 10.1 -38.1°
Maximum altitude 03:51:18 30° 169° (S) 2,317 - -38.5°
Drops below altitude 10° 03:57:34 10° 111° (ESE) 2,974 - -39.4°
Sets 04:00:12 0° 100° (E) 3,706 - -39.8°
